Location: Drlet�n
(49.9077°N, 14.8959°E)
Time: 22:11:03
(UTC+00:00)

Daily predictions for brighter satellites

Satellite Brightness Start Highest point End
(mag) Time Altitude Azimuth Time Altitude Azimuth Time Altitude Azimuth
ARGOS 4.5 15:34:57 10° E 15:38:32 18° NE 15:42:07 10° NNE
USA 307 3.2 15:35:01 10° SW 15:39:13 60° SSE 15:43:27 10° ENE
Cosmos 1766 Rocket 3.5 15:35:44 10° N 15:40:05 68° E 15:44:25 10° SSE
SMAP 3.5 15:36:19 10° SE 15:40:40 41° ENE 15:45:02 10° N
H-2A R/B 3.0 15:36:31 10° ESE 15:40:44 26° ENE 15:44:53 10° N
Cosmos 1862 3.3 15:36:51 10° N 15:40:50 65° ENE 15:44:47 10° SSE
Meteor PRIRODA 3.6 15:37:21 10° SSE 15:40:57 62° ENE 15:44:34 10° N
Cosmos 1939 Rocket 3.3 15:38:30 10° SE 15:42:22 41° ENE 15:46:15 10° N
ERBS 3.4 15:41:04 10° SSW 15:43:52 28° SE 15:46:41 10° ENE
Cosmos 1606 3.4 15:41:26 10° SSE 15:44:49 33° E 15:48:14 10° NNE
FengYun 1-2 T 4.3 15:39:49 10° SSE 15:45:18 59° ENE 15:50:47 10° N
Cosmos 44 3.5 15:42:48 10° NNW 15:47:35 49° NE 15:52:03 10° ESE
SL-16 R/B 4.5 15:43:25 10° N 15:48:10 24° NW 15:52:56 10° WSW
ATLAS CENTAUR R/B 1.5 15:44:13 10° SW 15:48:20 86° SE 15:52:50 10° NE
Cosmos 2221 3.1 15:46:20 10° SSE 15:50:12 35° E 15:54:07 10° NNE
Cosmos 2098 Rocket 4.3 15:44:34 10° N 15:50:55 85° W 15:58:10 10° S
COSMO-SKYMED 1 4.3 15:52:16 10° ENE 15:54:22 13° E 15:56:30 10° ESE
CZ-2C R/B 4.0 15:52:57 10° NE 15:56:21 17° E 15:59:44 10° SE
NOAA 12 4.1 15:52:26 10° SSE 15:57:46 85° ENE 16:03:07 10° NNW
CZ-4C R/B 3.6 15:52:12 10° NW 15:57:55 31° NNE 16:04:35 10° E
USA 308 2.9 15:57:10 10° WSW 16:01:25 78° SSE 16:05:10 13° ENE
Okean O Rocket 2.8 16:01:22 10° ESE 16:04:48 22° ENE 16:08:15 10° N
ISS -3.6 16:06:00 10° W 16:09:24 66° N 16:11:56 17° ENE
Cosmos 1464 Rocket 4.0 16:06:23 10° S 16:12:42 72° E 16:19:04 10° NNE
YAOGAN 1 4.2 16:13:13 14° ENE 16:13:13 14° ENE 16:15:31 10° NNE
Cosmos 2322 Rocket 4.1 16:12:13 10° N 16:14:04 11° NNE 16:15:46 10° NE
NOAA 6 4.0 16:09:02 10° SSE 16:14:11 81° ENE 16:19:21 10° NNW
Cosmos 1461 3.6 16:10:42 10° WSW 16:14:47 49° NW 16:18:38 11° NNE
Cosmos 1408 Rocket 3.4 16:14:36 10° N 16:18:58 81° E 16:23:20 10° SSE
Cosmos 2084 3.8 16:15:01 10° NW 16:19:05 44° NE 16:23:06 11° ESE
Cosmos 1271 Rocket 3.3 16:16:52 10° SSW 16:20:44 60° WNW 16:24:41 10° N
NOSS 2-1 (E) 3.0 16:18:18 10° SW 16:21:32 71° NW 16:24:04 17° NE
GEOS 3 Rocket 3.8 16:17:28 10° ESE 16:22:32 51° NE 16:27:33 10° NW
CZ-4 R/B 3.4 16:24:22 13° NE 16:24:22 13° NE 16:25:16 10° NNE
CZ-4B R/B 4.0 16:18:59 10° S 16:23:02 48° W 16:26:55 10° NNW
Cosmos 1743 Rocket 3.7 16:19:06 10° N 16:23:20 50° ENE 16:27:32 10° SSE
Cosmos 1697 Rocket 3.0 16:18:09 10° NNW 16:23:32 44° NE 16:28:53 10° SE
Cosmos 1980 Rocket 3.0 16:20:18 10° NNW 16:25:14 29° NE 16:28:49 16° E
Cosmos 1937 Rocket 4.0 16:20:41 10° NNW 16:25:37 37° NE 16:30:32 10° ESE
Nadezhda 4 Rocket 4.0 16:20:19 10° N 16:26:40 81° E 16:33:00 10° SSE
Cosmos 1782 4.2 16:24:09 10° SE 16:26:58 19° E 16:26:58 19° E
USA 267 3.4 16:21:33 14° ENE 16:27:13 74° NNW 16:33:44 10° WSW
Lacrosse 5 4.1 16:22:59 10° WNW 16:27:16 27° SW 16:31:32 10° S
Cosmos 1763 Rocket 4.1 16:23:34 10° SSE 16:28:05 34° ESE 16:31:14 17° NE
deb Kosmos-1763 3.8 16:24:44 10° SSW 16:28:08 83° ESE 16:30:54 15° NNE
SL-16 R/B 3.9 16:25:35 10° N 16:28:43 15° NNE 16:29:47 14° NE
Cosmos 1656 3.6 16:24:20 10° NNW 16:29:53 84° ENE 16:35:29 10° SSE
USA 305 2.9 16:26:33 10° WSW 16:30:47 73° NNW 16:33:22 23° ENE
CZ-2C R/B 4.1 16:26:31 10° S 16:31:19 46° W 16:35:58 10° NNW
CZ-4B DEB 4.2 16:27:57 10° SSE 16:33:29 90° E 16:39:02 10° NNW
Cosmos 1340 Rocket 2.7 16:31:55 10° N 16:35:59 81° ENE 16:40:04 10° SSE
Cosmos 1092 Rocket 4.0 16:30:38 10° N 16:36:57 60° ENE 16:43:12 10° SSE
Cosmos 2082 Rocket 3.7 16:33:41 10° SE 16:36:39 16° ESE 16:36:39 16° ESE
Cosmos 1809 Rocket 4.5 16:32:04 10° N 16:38:05 55° ENE 16:44:02 10° SSE
USA 229 DEB 3.9 16:31:18 10° NW 16:38:33 73° NE 16:46:18 10° SE
USA 229 3.9 16:31:24 10° NW 16:38:39 72° NE 16:46:23 10° SE
Cosmos 990 Rocket 3.9 16:36:02 10° NNW 16:41:16 78° ENE 16:46:27 10° SSE
COSMOS 2406 4.1 16:37:09 10° SSE 16:42:01 29° ESE 16:43:56 24° ENE
SKYMED 2 4.1 16:40:36 21° NE 16:42:55 36° E 16:46:55 10° SSE
H-2A R/B 4.5 16:45:36 12° NNE 16:45:36 12° NNE 16:46:05 10° NNE
Lacrosse 5 rocket 2.4 16:40:40 10° WNW 16:44:02 28° N 16:45:17 24° NE
Cosmos 1602 3.8 16:42:34 10° N 16:46:21 52° ENE 16:50:06 10° SSE
USA 276 2.3 16:43:34 10° W 16:46:41 65° SSW 16:47:51 33° SE
ATLAS 2AS CENTAUR R/B 4.0 16:39:52 10° W 16:46:54 36° NNW 16:52:29 15° NE
ATLAS CENTAUR R/B 3.2 16:39:25 10° SSW 16:48:45 46° SE 16:50:57 28° E
PAYLOAD B 4.3 16:43:30 10° SSE 16:49:07 87° WSW 16:54:47 10° NNW
Cosmos 1933 3.5 16:45:17 10° SSE 16:49:11 48° E 16:51:18 24° NNE
Cosmos 1428 Rocket 4.4 16:43:29 10° N 16:49:34 64° ENE 16:55:39 10° SSE
SJ 16-02 3.5 16:46:02 10° NW 16:49:48 28° W 16:53:33 10° SSW
Cosmos 372 Rocket 4.4 16:47:55 10° NNW 16:52:49 39° ENE 16:55:11 25° ESE
Cosmos 1500 Rocket 3.7 16:49:19 10° NNW 16:53:48 78° W 16:58:12 10° S
Cosmos 1627 Rocket 4.4 16:48:28 10° N 16:54:41 69° ENE 17:00:47 10° SSE
Cosmos 2034 Rocket 4.0 16:50:01 10° SSW 16:56:11 81° W 17:02:23 10° N
CZ-2D R/B 3.8 16:57:48 10° S 17:01:37 60° W 17:05:26 10° NNW
NOSS 3-1 (A) 4.1 16:54:36 10° NW 17:01:59 86° SW 17:10:41 10° SE
USA 306 3.2 16:58:30 10° W 17:02:43 58° NNW 17:04:00 39° NE
NOSS 2-1 (C) 4.4 17:00:01 10° W 17:02:54 29° NW 17:04:09 22° N
Meteor 1-20 Rocket 4.4 16:58:10 10° NNW 17:03:59 79° W 17:09:49 10° S
Cosmos 1805 Rocket 3.4 17:00:18 10° N 17:04:41 83° E 17:09:01 10° S
Cosmos 1833 Rocket 2.7 17:04:08 10° S 17:09:35 56° ESE 17:11:51 34° NE
Cosmos 2360 4.1 17:04:23 10° NNW 17:10:10 82° ENE 17:15:54 10° SSE
Cosmos 2279 Rocket 4.2 17:05:48 10° SSE 17:11:38 45° E 17:16:37 14° NNE
NOSS 2-2 (D) 4.2 17:07:49 10° NW 17:12:37 60° NE 17:15:23 33° ESE
Meteor 1-14 Rocket 4.3 17:08:06 10° N 17:13:45 55° ENE 17:19:29 10° SSE
CZ-4B R/B 3.3 17:08:22 10° SSE 17:13:50 78° WSW 17:19:14 10° NNW
NOSS 2-2 (E) 4.2 17:09:06 10° NW 17:14:07 71° NE 17:18:12 25° SE
Cosmos 2219 Rocket 4.4 17:13:50 10° N 17:14:34 10° NNE 17:14:34 10° NNE
Sich 1 2.8 17:11:35 10° N 17:15:52 85° ENE 17:20:10 10° S
ARGOS 3.1 17:12:41 10° SSE 17:18:07 89° WSW 17:23:34 10° NNW
USA 307 3.2 17:15:00 10° W 17:19:13 55° NNW 17:19:51 49° NNE
ERBS 2.9 17:16:32 10° WSW 17:19:27 47° NW 17:19:27 47° NW
H-2A R/B 2.7 17:14:45 10° S 17:19:53 55° W 17:24:55 10° NNW
Cosmos 1898 Rocket 3.7 17:14:41 10° NNW 17:19:57 70° WSW 17:25:08 10° SSE
MOS 1-B Rocket 3.9 17:14:25 10° NNE 17:20:09 88° WNW 17:26:27 10° SSW
Cosmos 1634 Rocket 3.9 17:15:23 10° S 17:21:41 79° E 17:28:03 10° NNE
SL-24 R/B - RUBIN 2 3.6 17:18:40 10° NW 17:23:11 56° NE 17:23:11 56° NE
Cosmos 1655 Rocket 4.3 17:18:52 10° N 17:24:54 41° ENE 17:24:56 41° ENE
COSMOS 2455 3.3 17:20:28 10° S 17:25:52 39° ESE 17:25:52 39° ESE
Landsat 5 3.3 17:27:18 72° ESE 17:27:18 72° ESE 17:31:18 10° S
ATLAS CENTAUR R/B 3.4 17:24:20 10° W 17:27:49 23° NNW 17:29:27 19° N
Cosmos 468 Rocket 3.9 17:22:48 10° SSW 17:27:57 84° WNW 17:30:21 33° NNE
SL-19 R/B 4.5 17:23:31 11° NNE 17:29:17 89° WNW 17:35:42 10° SSW
COSMO-SKYMED 1 2.6 17:29:13 33° N 17:31:06 78° WNW 17:35:26 10° SSW
Meteor 2-16 Rocket 4.3 17:25:32 10° N 17:31:39 73° ENE 17:37:46 10° SSE
Cosmos 2026 Rocket 4.2 17:27:58 10° NNW 17:34:07 68° W 17:40:08 10° S
SL-08 RB Rocket 3.7 17:31:26 10° SSE 17:36:07 84° WSW 17:40:46 10° NNW
Cosmos 540 Rocket 3.3 17:31:31 10° SSW 17:36:36 73° ESE 17:37:03 68° ENE
CZ-2C R/B 2.6 17:32:51 15° N 17:37:18 77° WNW 17:42:28 10° SSW
Cosmos 1500 3.6 17:36:30 10° NNW 17:44:46 - S 17:40:06 58° W
Okean O Rocket 2.4 17:36:30 10° S 17:40:50 51° W 17:45:14 10° NNW
USA 308 3.5 17:37:23 10° W 17:41:12 49° NNW 17:41:12 49° NNW
Cosmos 2360 Rocket 4.0 17:39:09 10° N 17:41:19 17° N 17:41:19 17° N
ISS -1.9 17:42:59 10° WNW 17:44:55 31° WNW 17:44:55 31° WNW
CZ-4C R/B 2.8 17:40:41 10° NW 17:47:38 70° NE 17:49:48 50° ESE
YAOGAN 1 3.6 17:50:22 37° NNW 17:50:22 37° NNW 17:53:02 10° NNW
Cosmos 2180 Rocket 4.4 17:42:29 10° S 17:48:46 64° E 17:49:36 58° NE
Meteor 1-5 Rocket 4.3 17:48:55 10° NNW 17:54:56 85° W 18:00:53 10° S
CZ-4 R/B 3.6 18:00:22 18° NNW 18:00:22 18° NNW 18:01:26 10° NNW
Cosmos 2369 4.1 17:53:45 10° NW 17:59:26 62° WSW 18:02:24 28° S
Cosmos 2322 Rocket 3.7 17:54:56 10° NNW 17:57:35 23° N 17:57:35 23° N
Cosmos 1782 4.1 17:59:15 10° SW 18:02:35 39° W 18:02:35 39° W
Cosmos 1697 Rocket 4.0 18:02:19 10° NW 18:07:26 37° WSW 18:12:32 10° S
Cosmos 1980 Rocket 2.5 18:04:04 10° NNW 18:09:42 65° WSW 18:10:40 55° SSW
USA 267 3.7 18:08:54 46° NNE 18:09:50 49° N 18:16:05 10° WNW
NOSS 2-2 (C) 4.5 18:04:52 10° NW 18:09:57 68° SW 18:10:59 58° S
Cosmos 841 Rocket 3.9 18:06:03 10° SSW 18:10:10 56° SW 18:10:10 56° SW
SL-16 R/B 3.5 18:08:48 10° NNW 18:11:40 28° N 18:11:40 28° N
Cosmos 2333 Rocket 4.3 18:10:12 10° N 18:11:35 15° N 18:11:35 15° N
Cosmos 2082 Rocket 2.9 18:14:39 10° SSW 18:18:33 46° SSW 18:18:33 46° SSW
Lacrosse 5 rocket 3.8 18:19:56 10° NW 18:20:53 17° NW 18:20:53 17° NW
Cosmos 2278 4.1 18:19:51 10° NNW 18:24:47 60° WNW 18:24:47 60° WNW
COSMOS 2406 3.7 18:20:21 10° SW 18:26:00 57° NW 18:26:02 57° NW
ATLAS 2AS CENTAUR R/B 4.1 18:33:36 10° NW 18:39:54 28° N 18:39:54 28° N
Cosmos 1833 Rocket 4.2 18:48:51 10° WSW 18:53:35 32° NW 18:53:35 32° NW
COSMOS 2455 4.4 19:05:59 10° WSW 19:09:04 29° WSW 19:09:04 29° WSW
CZ-4C R/B 4.0 19:29:25 10° NW 19:35:02 38° W 19:35:02 38° W
